Date String (YYYY-MM-DD hh:mm:ss) UTC,Instrument flags,Ambient pressure (hPa),Sample flow (lpm),Bypass flow (lpm),Sample temperature (°C),Ambient temperature (°C),ASC tube jacket temperature (°C),LED temperature (°C),Box temperature (°C),Sample RH (%),Span deviation,Mass concentration (μg/m³),Mass concentration (μg/m³),Mass concentration (μg/m³)
DateTimeUTC,F1_M11,P_M11,Q1_M11,Q2_M11,T1_M11,T2_M11,T3_M11,T4_M11,T5_M11,U1_M11,ZSPAN_M11,X0_M11,X2_M11,X1_M11
2022-09-29 21:00:00,,0827.7,5.00,0.00,29.8,28.6,00.0,38.5,31.8,18.1,0000.0,0008.78,0003.81,0003.30
2022-09-29 21:01:00,,0827.7,4.99,0.00,29.9,28.7,00.0,38.5,31.8,18.0,0000.0,0008.58,0003.78,0003.29
2022-09-29 21:02:00,,0827.7,5.00,0.00,29.9,28.9,00.0,38.5,31.9,18.1,0000.0,0008.17,0003.72,0003.28
2022-09-29 21:03:00,,0827.7,5.00,0.00,29.9,29.0,00.0,38.6,31.9,18.0,0000.0,0007.97,0003.68,0003.27
2022-09-29 21:04:00,,0827.8,5.01,0.00,30.0,29.0,00.0,38.6,32.0,17.5,0000.0,0007.57,0003.67,0003.27
2022-09-29 21:05:00,,0827.8,4.99,0.00,30.0,29.1,00.0,38.6,32.0,17.0,0000.0,0007.34,0003.69,0003.27
2022-09-29 21:06:00,,0827.7,5.01,0.00,30.0,29.2,00.0,38.6,32.0,16.4,0000.0,0007.05,0003.69,0003.26
2022-09-29 21:07:00,,0827.7,4.99,0.00,30.1,29.2,00.0,38.7,32.1,16.1,0000.0,0006.47,0003.67,0003.25
2022-09-29 21:08:00,,0827.7,5.01,0.00,30.1,28.7,00.0,38.7,32.1,16.1,0000.0,0006.59,0003.68,0003.25
2022-09-29 21:09:00,,0827.7,5.00,0.00,30.1,27.3,00.0,38.7,31.9,16.2,0000.0,0006.72,0003.72,0003.25
2022-09-29 21:10:00,,0827.7,5.00,0.00,30.0,26.7,00.0,38.6,31.8,16.8,0000.0,0006.40,0003.72,0003.26
2022-09-29 21:11:00,,0827.7,5.01,0.00,30.0,26.9,00.0,38.6,31.7,17.4,0000.0,0006.48,0003.72,0003.27
2022-09-29 21:12:00,,0827.7,5.00,0.00,29.9,27.2,00.0,38.6,31.7,18.1,0000.0,0006.44,0003.70,0003.27
2022-09-29 21:13:00,,0827.7,4.99,0.00,29.9,27.6,00.0,38.6,31.7,18.2,0000.0,0006.93,0003.75,0003.28
2022-09-29 21:14:00,,0827.8,4.99,0.00,29.9,27.9,00.0,38.6,31.7,17.7,0000.0,0007.26,0003.77,0003.28
2022-09-29 21:15:00,,0827.7,5.00,0.00,29.9,28.2,00.0,38.6,31.7,17.8,0000.0,0007.33,0003.77,0003.27
2022-09-29 21:16:00,,0827.7,5.00,0.00,29.9,28.4,00.0,38.6,31.8,18.4,0000.0,0008.48,0003.79,0003.27
2022-09-29 21:17:00,,0827.7,4.99,0.00,29.9,28.6,00.0,38.6,31.8,17.8,0000.0,0008.64,0003.79,0003.27
2022-09-29 21:18:00,,0827.7,5.01,0.00,30.0,28.7,00.0,38.6,31.9,17.7,0000.0,0009.04,0003.82,0003.27
2022-09-29 21:19:00,,0827.7,4.99,0.00,30.0,28.9,00.0,38.6,31.9,17.8,0000.0,0009.40,0003.84,0003.27
2022-09-29 21:20:00,,0827.7,5.01,0.00,30.0,29.0,00.0,38.6,32.0,18.2,0000.0,0009.60,0003.83,0003.27
2022-09-29 21:21:00,,0827.7,4.99,0.00,30.0,29.1,00.0,38.7,32.0,17.9,0000.0,0009.68,0003.84,0003.26
2022-09-29 21:22:00,,0827.7,5.01,0.00,30.1,29.2,00.0,38.7,32.0,17.4,0000.0,0009.55,0003.81,0003.25
2022-09-29 21:23:00,,0827.7,4.99,0.00,30.1,29.1,00.0,38.7,32.1,17.2,0000.0,0009.50,0003.83,0003.26
2022-09-29 21:24:00,,0827.7,5.01,0.00,30.1,27.9,00.0,38.7,32.0,17.2,0000.0,0009.36,0003.82,0003.26
2022-09-29 21:25:00,,0827.7,5.01,0.00,30.1,26.6,00.0,38.7,31.9,17.4,0000.0,0009.19,0003.80,0003.26
2022-09-29 21:26:00,,0827.7,5.00,0.00,30.0,26.7,00.0,38.6,31.8,17.6,0000.0,0009.14,0003.79,0003.26
2022-09-29 21:27:00,,0827.7,4.99,0.00,30.0,26.9,00.0,38.6,31.7,17.7,0000.0,0008.32,0003.77,0003.26
2022-09-29 21:28:00,,0827.6,5.00,0.00,29.9,27.3,00.0,38.6,31.7,17.7,0000.0,0007.85,0003.76,0003.26
2022-09-29 21:29:00,,0827.6,5.00,0.00,29.9,27.7,00.0,38.6,31.7,18.0,0000.0,0007.66,0003.74,0003.26
2022-09-29 21:30:00,,0827.6,4.99,0.00,29.9,28.0,00.0,38.6,31.7,18.2,0000.0,0007.49,0003.74,0003.25
2022-09-29 21:31:00,,0827.6,5.00,0.00,29.9,28.2,00.0,38.6,31.7,18.3,0000.0,0007.08,0003.73,0003.25
2022-09-29 21:32:00,,0827.6,4.98,0.00,29.9,28.4,00.0,38.6,31.8,18.5,0000.0,0007.00,0003.72,0003.24
2022-09-29 21:33:00,,0827.6,5.01,0.00,29.9,28.6,00.0,38.6,31.9,18.5,0000.0,0007.16,0003.72,0003.24
2022-09-29 21:34:00,,0827.6,5.01,0.00,29.9,28.8,00.0,38.6,31.9,18.4,0000.0,0007.05,0003.69,0003.24
2022-09-29 21:35:00,,0827.7,5.00,0.00,30.0,28.9,00.0,38.6,32.0,18.3,0000.0,0006.99,0003.65,0003.23
2022-09-29 21:36:00,,0827.7,5.01,0.00,30.0,29.0,00.0,38.7,32.0,18.1,0000.0,0007.34,0003.64,0003.22
2022-09-29 21:37:00,,0827.7,5.00,0.00,30.0,29.1,00.0,38.7,32.0,18.3,0000.0,0007.45,0003.64,0003.21
2022-09-29 21:38:00,,0827.7,5.01,0.00,30.1,29.0,00.0,38.7,32.1,18.3,0000.0,0007.48,0003.63,0003.21
2022-09-29 21:39:00,,0827.7,5.00,0.00,30.1,27.7,00.0,38.7,31.9,18.5,0000.0,0008.32,0003.63,0003.21
2022-09-29 21:40:00,,0827.7,5.01,0.00,30.0,26.6,00.0,38.7,31.8,18.3,0000.0,0008.64,0003.62,0003.21
2022-09-29 21:41:00,,0827.7,5.01,0.00,30.0,26.6,00.0,38.6,31.7,18.3,0000.0,0008.40,0003.60,0003.20
2022-09-29 21:42:00,,0827.7,5.01,0.00,29.9,26.9,00.0,38.6,31.6,18.3,0000.0,0008.44,0003.61,0003.19
2022-09-29 21:43:00,,0827.8,4.99,0.00,29.8,27.2,00.0,38.5,31.6,18.2,0000.0,0008.48,0003.61,0003.18
2022-09-29 21:44:00,,0827.7,5.00,0.00,29.8,27.6,00.0,38.5,31.6,17.8,0000.0,0008.86,0003.63,0003.17
2022-09-29 21:45:00,,0827.7,4.99,0.00,29.8,27.9,00.0,38.5,31.7,17.8,0000.0,0009.62,0003.62,0003.16
2022-09-29 21:46:00,,0827.7,5.01,0.00,29.8,28.2,00.0,38.5,31.7,18.0,0000.0,0009.87,0003.63,0003.15
2022-09-29 21:47:00,,0827.8,5.00,0.00,29.8,28.4,00.0,38.5,31.7,18.5,0000.0,0009.62,0003.63,0003.14
2022-09-29 21:48:00,,0827.8,5.00,0.00,29.9,28.5,00.0,38.5,31.8,18.4,0000.0,0009.93,0003.63,0003.13
2022-09-29 21:49:00,,0827.8,5.00,0.00,29.9,28.7,00.0,38.5,31.8,18.7,0000.0,0010.03,0003.61,0003.12
2022-09-29 21:50:00,,0827.9,4.99,0.00,29.9,28.8,00.0,38.6,31.9,18.2,0000.0,0009.76,0003.60,0003.11
2022-09-29 21:51:00,,0827.9,5.01,0.00,29.9,28.9,00.0,38.6,31.9,17.9,0000.0,0010.09,0003.61,0003.09
2022-09-29 21:52:00,,0827.9,4.99,0.00,30.0,29.0,00.0,38.6,31.9,18.0,0000.0,0010.25,0003.60,0003.09
2022-09-29 21:53:00,,0827.9,5.01,0.00,30.0,29.1,00.0,38.6,32.0,17.9,0000.0,0010.45,0003.58,0003.08
2022-09-29 21:54:00,,0827.9,5.00,0.00,30.0,28.4,00.0,38.6,32.0,17.9,0000.0,0010.34,0003.57,0003.09
2022-09-29 21:55:00,,0827.9,5.00,0.00,30.0,27.3,00.0,38.6,31.9,18.1,0000.0,0010.11,0003.55,0003.09
2022-09-29 21:56:00,,0827.9,5.01,0.00,30.0,27.2,00.0,38.6,31.8,18.3,0000.0,0009.88,0003.57,0003.09
2022-09-29 21:57:00,,0827.9,5.01,0.00,29.9,27.4,00.0,38.6,31.7,18.3,0000.0,0010.28,0003.56,0003.09
2022-09-29 21:58:00,,0827.9,5.01,0.00,29.9,27.7,00.0,38.6,31.7,18.5,0000.0,0010.39,0003.57,0003.08
2022-09-29 21:59:00,,0827.8,4.99,0.00,29.9,28.0,00.0,38.6,31.8,18.7,0000.0,0010.05,0003.56,0003.07
